• Join FlightAware (Why Join?)
  • Login
  • US Flag 
12:52PM EDT


 

Airport Tracker/Info


-or-


 

Live Flight TrackerFlight Track Log ✈ ASH3787 ✈ 02-May-2013 ✈ KORD - KPHL

Flight Track Log - Related Links

Times and Time Zones

All times are in EDT time to prevent confusion due to time zone crossing. See the ASH3787 flight status page for this flight to view local times or setup timezone preferences in your user account.

Time Position Orientation Groundspeed Altitude Reporting Facility
EDT Latitude Longitude Course Direction KTS MPH feet Rate Location/Type
05:15PM 42.0000 -87.8833 66° East 144 166 1,200  Level Chicago TRACON
05:16PM 42.0167 -87.8333 66° East 196 226 3,200 1,500 Climbing Chicago TRACON
05:18PM 42.0539 -87.6297 76° East 254 292 6,700 1,800 Climbing Chicago Center
05:19PM 42.0233 -87.5147 110° East 270 311 9,600 2,220 Climbing Chicago Center
05:20PM 42.0050 -87.4053 103° East 294 338 11,400 1,800 Climbing Chicago Center
05:21PM 41.9825 -87.2814 104° East 333 383 13,400 1,740 Climbing Chicago Center
05:22PM 41.9611 -87.1508 102° East 354 407 15,100 1,740 Climbing Chicago Center
05:23PM 41.9475 -87.0131 98° East 376 433 17,000 1,860 Climbing Chicago Center
05:24PM 41.9494 -86.8419 89° East 383 441 19,000 1,680 Climbing Chicago Center
05:26PM 41.9498 -86.6958 90° East  Level FlightAware Approximate
05:27PM 41.9528 -86.5531 90° East 401 461 22,300  Level Chicago Center
05:28PM 41.9544 -86.3986 89° East 412 474 23,500 1,080 Climbing Chicago Center
05:29PM 41.9547 -86.2431 90° East 417 480 24,600 1,200 Climbing Chicago Center
05:30PM 41.9400 -86.0528 96° East 429 494 26,000 1,200 Climbing Chicago Center
05:31PM 41.9258 -85.8919 97° East 433 498 27,100 1,020 Climbing Chicago Center
05:32PM 41.9069 -85.7292 99° East 440 506 28,200 960 Climbing Chicago Center
05:33PM 41.8794 -85.5681 103° East 441 507 29,200 1,080 Climbing Chicago Center
05:34PM 41.8525 -85.4067 103° East 440 506 30,500 1,080 Climbing Chicago Center
05:35PM 41.8258 -85.2483 103° East 430 495 31,500 720 Climbing Chicago Center
05:36PM 41.7972 -85.0894 104° East 434 499 32,000 240 Climbing Chicago Center
05:37PM 41.7678 -84.9236 103° East 453 521 32,000 360 Level Chicago Center
05:38PM 41.7319 -84.7194 103° East 467 537 32,800 780 Climbing Chicago Center
05:39PM 41.7022 -84.5533 103° East 461 531 33,700 840 Climbing Chicago Center
05:40PM 41.6722 -84.3897 104° East 456 525 34,600 600 Climbing Chicago Center
05:41PM 41.6419 -84.2269 104° East 453 521 35,000 240 Climbing Chicago Center
05:42PM 41.6122 -84.0608 103° East 459 528 35,200 600 Climbing Chicago Center
05:43PM 41.5808 -83.8953 104° East 460 529 36,300 840 Climbing Chicago Center
05:44PM 41.5456 -83.7294 106° East 457 526 37,000 300 Climbing Cleveland Center
05:45PM 41.5144 -83.5672 104° East 457 526 37,000  Level Cleveland Center
05:46PM 41.4833 -83.4019 104° East 457 526 37,000  Level Cleveland Center
05:47PM 41.4497 -83.2344 105° East 463 533 37,000  Level Cleveland Center
05:48PM 41.4183 -83.0531 103° East 463 533 37,000  Level Cleveland Center
05:49PM 41.3864 -82.8886 104° East 457 526 37,000  Level Cleveland Center
05:50PM 41.3542 -82.7214 104° East 463 533 37,000  Level Cleveland Center
05:51PM 41.3233 -82.5767 106° East 458 527 37,000  Level Cleveland Center
05:52PM 41.2886 -82.4097 105° East 463 533 37,000  Level Cleveland Center
05:53PM 41.2558 -82.2486 105° East 457 526 37,000  Level Cleveland Center
05:54PM 41.2228 -82.0656 103° East 457 526 37,000  Level Cleveland Center
05:55PM 41.1894 -81.8992 105° East 457 526 37,000  Level Cleveland Center
05:56PM 41.1558 -81.7358 105° East 457 526 37,000  Level Cleveland Center
05:57PM 41.1175 -81.5836 108° East 464 534 37,000  Level Cleveland Center
05:58PM 41.0856 -81.4178 104° East 469 540 37,000  Level Cleveland Center
05:59PM 41.0492 -81.2522 106° East 463 533 37,000  Level Cleveland Center
06:00PM 41.0144 -81.0867 105° East 463 533 37,000  Level Cleveland Center
06:01PM 40.9797 -80.9022 104° East 458 527 37,000  Level Cleveland Center
06:02PM 40.9425 -80.7369 107° East 458 527 37,000  Level Cleveland Center
06:03PM 40.9053 -80.5694 106° East 463 533 37,000  Level Cleveland Center
06:04PM 40.8675 -80.3992 106° East 468 539 37,000  Level Cleveland Center
06:05PM 40.8339 -80.2539 107° East 468 539 37,000  Level Cleveland Center
06:06PM 40.7792 -80.0950 114° Southeast 468 539 37,000  Level Cleveland Center
06:07PM 40.7242 -79.9311 114° Southeast 457 526 37,000  Level Cleveland Center
06:08PM 40.6689 -79.7811 116° Southeast 451 519 37,000  Level Cleveland Center
06:09PM 40.6200 -79.6450 115° Southeast 451 519 37,000 -180 Level Cleveland Center
06:10PM 40.5644 -79.4925 116° Southeast 451 519 36,700 -900 Descending Cleveland Center
06:11PM 40.5333 -79.3211 103° East 462 532 35,300 -1,440 Descending Cleveland Center
06:12PM 40.5044 -79.1550 103° East 462 532 33,900 -1,200 Descending Cleveland Center
06:13PM 40.4792 -78.9864 101° East 467 537 33,000 -480 Descending Cleveland Center
06:14PM 40.4539 -78.8206 101° East 467 537 33,000 -1,020 Level Cleveland Center
06:15PM 40.4217 -78.6331 103° East 472 543 31,000 -1,920 Descending Cleveland Center
06:16PM 40.3936 -78.4650 102° East 472 543 29,200 -1,620 Descending Cleveland Center
06:17PM 40.3819 -78.3683 99° East 470 541 28,500 -1,620 Descending New York Center
06:18PM 40.3558 -78.2211 103° East 458 527 26,700 -1,800 Descending New York Center
06:19PM 40.3264 -78.0572 103° East 458 527 25,000 -900 Descending New York Center
06:20PM 40.3144 -77.8761 95° East 458 527 24,900 -720 Descending New York Center
06:21PM 40.2986 -77.7219 98° East 446 513 23,600 -1,320 Descending New York Center
06:22PM 40.2786 -77.5622 99° East 441 507 22,300 -1,320 Descending New York Center
06:23PM 40.2589 -77.3969 99° East 441 507 21,000 -1,080 Descending New York Center
06:24PM 40.2403 -77.2428 99° East 446 513 20,200 -1,080 Descending New York Center
06:25PM 40.2231 -77.1025 99° East 436 502 18,900 -1,140 Descending New York Center
06:26PM 40.2025 -76.9350 99° East 426 490 18,000 -780 Descending New York Center
06:27PM 40.1831 -76.7864 100° East 420 483 17,400 -1,140 Descending New York Center
06:28PM 40.1650 -76.6517 100° East 399 459 15,800 -1,680 Descending New York Center
06:29PM 40.1508 -76.5172 98° East 372 428 14,100 -1,680 Descending New York Center
06:30PM 40.1319 -76.3856 101° East 367 422 12,600 -1,620 Descending New York Center
06:31PM 40.1172 -76.2594 99° East 367 422 10,900 -1,380 Descending New York Center
06:32PM 40.1092 -76.1611 96° East 324 373 9,900 -900 Descending New York Center
06:33PM 40.1017 -76.0519 95° East 274 315 9,200 -660 Descending New York Center
06:34PM 40.0950 -75.9644 96° East 267 307 8,700 -900 Descending New York Center
06:35PM 40.0892 -75.8583 94° East 262 302 7,500 -1,260 Descending New York Center
06:36PM 40.0822 -75.7764 96° East 257 296 6,200 -780 Descending New York Center
06:37PM 40.0842 -75.6814 88° East 246 283 6,000 -120 Descending New York Center
06:38PM 40.0894 -75.6033 85° East 241 277 6,000  Level New York Center
06:39PM 40.0956 -75.5058 85° East 241 277 6,000  Level New York Center
06:40PM 40.0967 -75.4244 89° East 241 277 6,000  Level New York Center
06:41PM 40.0922 -75.3267 93° East 246 283 6,000  Level New York Center
06:42PM 40.0833 -75.2333 97° East 252 290 6,000  Level Philadelphia TRACON
06:42PM 40.0667 -75.1667 108° East 245 282 6,000  Level Philadelphia TRACON
06:44PM 40.0333 -75.0667 113° Southeast 249 287 6,000 -360 Level Philadelphia TRACON
06:45PM 39.9833 -75.0333 153° Southeast 220 253 5,300 -1,200 Descending Philadelphia TRACON
06:46PM 39.9333 -75.0500 194° South 207 238 3,600 -1,740 Descending Philadelphia TRACON
06:46PM 39.9000 -75.0833 217° Southwest 183 211 2,000 -1,200 Descending Philadelphia TRACON
06:48PM 39.8833 -75.1500 252° West 155 178 1,200 -840 Descending Philadelphia TRACON
06:49PM 39.8833 -75.2000 270° West 148 170 300 -900 Descending Philadelphia TRACON
06:51PM 39.8667 -75.2333 247° West  Level FlightAware Approximate